Printer-friendly version

IAU Minor Planet Center

Minor Planet Center

MPEC 2006-G34 : 2006 GV2

The following Minor Planet Electronic Circular may be linked-to from your own Web pages, but must not otherwise be redistributed electronically.


Read MPEC 2006-G33 Read MPEC 2006-G35


M.P.E.C. 2006-G34                                Issued 2006 Apr. 10, 14:57 UT

     The Minor Planet Electronic Circulars contain information on unusual
         minor planets and routine data on comets.  They are published
   on behalf of Commission 20 of the International Astronomical Union by the
          Minor Planet Center, Smithsonian Astrophysical Observatory,
                          Cambridge, MA 02138, U.S.A.

                  Supported in part by the Brinson Foundation
                  Supported in part by the TABASGO Foundation
             Prepared using the Tamkin Foundation Computer Network

                              MPC@CFA.HARVARD.EDU
          URL http://cfa-www.harvard.edu/iau/mpc.html  ISSN 1523-6714

                                   2006 GV2

Observations:
     K06G02V* C2006 04 07.40383 14 37 26.22 +23 05 07.6          20.6 V EG034G96
     K06G02V  C2006 04 07.41102 14 37 25.53 +23 05 30.1          20.2 V EG034G96
     K06G02V  C2006 04 07.41822 14 37 24.96 +23 05 52.2          20.1 V EG034G96
     K06G02V  C2006 04 07.42539 14 37 24.31 +23 06 13.6          20.0 V EG034G96
     K06G02V  C2006 04 08.42201 14 35 59.92 +23 57 29.9          20.8 V EG034G96
     K06G02V  C2006 04 08.43435 14 35 58.77 +23 58 08.7          20.8 V EG034G96
     K06G02V  C2006 04 08.44243 14 35 58.02 +23 58 33.6          20.6 V EG034G96
     K06G02V  C2006 04 08.45141 14 35 57.15 +23 59 02.9          20.2 V EG034G96
     K06G02V  C2006 04 09.01828 14 35 06.76 +24 28 46.6                 EG034J95
     K06G02V  C2006 04 09.02477 14 35 06.23 +24 29 07.0                 EG034J95
     K06G02V  C2006 04 09.03127 14 35 05.56 +24 29 27.1          20.9 R EG034J95
     K06G02V  C2006 04 09.33113 14 34 37.64 +24 45 31.8                 EG034682
     K06G02V  C2006 04 09.34572 14 34 36.25 +24 46 18.1                 EG034682
     K06G02V  C2006 04 09.36031 14 34 34.94 +24 47 03.9                 EG034682
     K06G02V  C2006 04 09.37575 14 34 32.94 +24 47 52.5          20.4 R EG034649
     K06G02V  C2006 04 09.38286 14 34 32.35 +24 48 14.9          20.5 R EG034649
     K06G02V  C2006 04 09.38997 14 34 31.64 +24 48 37.9          20.3 R EG034649
     K06G02V  C2006 04 09.45196 14 34 25.60 +24 51 59.2          20.1 V EG034G96
     K06G02V  C2006 04 09.45848 14 34 24.99 +24 52 19.9          19.9 V EG034G96
     K06G02V  C2006 04 09.46506 14 34 24.31 +24 52 40.8          20.7 V EG034G96
     K06G02V  C2006 04 09.47164 14 34 23.70 +24 53 02.1          20.1 V EG034G96

Observer details:
649 Powell Observatory, Louisburg.  Observer R. Trentman.  0.75-m Newtonian
    reflector + CCD.
682 Kanab.  Observer E. Sheridan.  0.36-m f/5.5 Schmidt-Cassegrain + CCD.
G96 Mt. Lemmon Survey.  Observer R. E. Hill.  Measurers E. C. Beshore,
    E. J. Christensen, G. J. Garradd, A. R. Gibbs, A. D. Grauer, R. E. Hill,
    R. A. Kowalski, S. M. Larson, R. H. McNaught.  1.5-m reflector + CCD.
J95 Great Shefford.  Observer P. Birtwhistle.  0.40-m f/6.0 Schmidt-Cassegrain
    + CCD.

Orbital elements:
2006 GV2                                                 Earth MOID = 0.2001 AU
Epoch 2006 Mar. 6.0 TT = JDT 2453800.5                  MPC
M 312.40352              (2000.0)            P               Q
n   0.40995874     Peri.  196.35926     +0.92295778     +0.34616052
a   1.7946342      Node   142.00756     -0.31536990     +0.93077321
e   0.8017947      Incl.   15.86645     -0.22065985     +0.11761856
P   2.40           H   19.6           G   0.15           U   9
Residuals in seconds of arc
060407 G96  0.5+  0.6-    060408 G96  0.6-  1.4+    060409 649  1.1-  0.2-
060407 G96  0.4-  0.1+    060409 J95  0.6-  0.2-    060409 649  0.5+  0.6-
060407 G96  0.4+  0.3+    060409 J95  0.7+  0.5-    060409 649  0.4+  0.3-
060407 G96  0.0   0.0     060409 J95  0.0   1.1-    060409 G96  0.2-  0.3+
060408 G96  0.2-  0.1+    060409 682  1.3-  1.9+    060409 G96  0.3+  0.1+
060408 G96  0.2-  0.4+    060409 682  0.4-  1.2+    060409 G96  0.0   0.0
060408 G96  0.1-  0.1+    060409 682  1.6+  0.1+    060409 G96  0.6+  0.2+

Ephemeris:
2006 GV2                 a,e,i = 1.79, 0.80, 16                  q = 0.3557
Date    TT    R. A. (2000) Decl.     Delta      r     Elong.  Phase     V
2006 04 05    14 40.41   +21 07.4    0.642    1.560   142.6    22.9    20.7
2006 04 15    14 23.66   +30 12.2    0.527    1.440   138.3    27.6    20.2
2006 04 25    13 50.20   +41 32.0    0.441    1.311   125.2    38.8    20.0
2006 05 05    12 44.76   +53 34.2    0.389    1.174   105.5    55.9    19.9
2006 05 15    10 42.69   +61 53.9    0.368    1.027    82.1    77.1    20.2

Timothy B. Spahr             (C) Copyright 2006 MPC           M.P.E.C. 2006-G34

Read MPEC 2006-G33 Read MPEC 2006-G35


Our Web policy. Index to the CBAT/MPC/ICQ pages.


Valid HTML 4.01!